Find Starlink 31535

NORAD ID: 59504 Int'l Des: 2024-071 Owner: SPXS Country: US Constellation: starlink operational
LEOCIRCULAR

Live Position

Loading 3D Globe...

About Starlink 31535

Description loading...

Upcoming Passes

Passes for default location (London). Set your location on the main map for personalized predictions.

Altitude History

Loading altitude history...

Two-Line Element Set

1 59504U 24071W 26126.41159671 -.00002258 00000-0 -72523-4 0 9990
2 59504 43.0080 21.5218 0001178 300.6018 59.4718 15.27590072116947
Epoch: May 6, 2026 • Age: 10 hours

Current Status

Altitude 484.7 km
Velocity 7.63 km/s
Sub-Earth Point 32.04°N, 5.21°W
Launch Date Apr 13, 2024
Age 2 years
Type internet

Technical Details

Classification Payload
Mass 730.00 kg
Dry Mass 700.00 kg
Total Mass 730.00 kg
Length 0.30 m
Diameter 4.10 m
Span 29.00 m
Shape Box + pan
Manufacturer SPXS
Bus Type Starlink V2M
Phase Status In Orbit
Owner/State SPXS/US

Most Searched